Starlink 32864

operational
NORAD ID: 62862 Int'l Des: 2025-022 Owner: SPXS Country: US Constellation: starlink
LEOCIRCULAR

关于 Starlink 32864

正在加载描述...

实时位置

正在加载3D地球...

即将过境

高度历史

Altitude vs Time

uPlot chart will show altitude changes over time

两行轨道根数

1 62862U 25022J 25259.31573168 .00034292 00000-0 11617-2 0 9990
2 62862 53.1564 219.4847 0000842 90.5040 269.6058 15.30279282 35202
Epoch: Sep 16, 2025 • Age: 19 hours

当前状态

高度 474.9 km
速度 7.63 km/s
星下点 17.29°N, 20.14°W
发射日期 Feb 2, 2025
运行时间 0.6 years
类型 internet

技术详情

分类 Payload
质量 730.00 kg
干质量 700.00 kg
总质量 730.00 kg
长度 0.30 m
直径 4.10 m
跨度 29.00 m
形状 Box + pan
制造商 SPXS
平台类型 Starlink V2M
阶段状态 In Orbit
所有者/国家 SPXS/US

大型星座

Loading constellations...